User: anonymous   Login
Location: Prairie State College
(41.5244°N, 87.6382°W)
Time: 01:49:34
(UTC-06:00)
Language:

ARGOS Delta rocket - Orbit

View from above orbital plane
View from above orbital plane
View from above satellite
View from above satellite

Ground track
Ground track

The orbit data is extracted from the following two-line orbital elements,

1 25637U 99008D   16342.99962976  .00000079  00000-0  26882-4 0  9998
2 25637  96.4806 281.7093 0142989 168.4782 255.0904 14.46482224937974
Epoch (UTC): 07 December 2016 23:59:28
Eccentricity: 0.0142989
inclination: 96.4806°
perigee height: 635 km
apogee height: 839 km
right ascension of ascending node: 281.7093°
argument of perigee: 168.4782°
revolutions per day: 14.46482224
mean anomaly at epoch: 255.0904°
orbit number at epoch: 93797

The dashed part of the orbit path shows where the satellite is in the earth's shadow,  

DLR